Wetterdaten: Januar 2015
Datum Temp Feuchte Luftdruck Regen Wind Richtung Sonnenschein UV Solar Windben
01.01.2015 2,0 C 89 % 1031,4 hPa 0,0 l/m 7,5 km/h S 5,17 h 0,6 UV-I 130 W/m 12,9 km/h
02.01.2015 4,7 C 86 % 1025,1 hPa 8,4 l/m 10,8 km/h S-SW 0,25 h 0,5 UV-I 40 W/m 26,5 km/h
03.01.2015 1,7 C 93 % 1019,7 hPa 3,0 l/m 3,4 km/h S-SW 0,00 h 0,0 UV-I 32 W/m 17,3 km/h
04.01.2015 2,2 C 93 % 1031,4 hPa 0,2 l/m 3,9 km/h NW 0,00 h 0,0 UV-I 28 W/m 17,7 km/h
05.01.2015 1,1 C 92 % 1030,1 hPa 0,0 l/m 0,9 km/h W 0,58 h 0,5 UV-I 41 W/m 7,6 km/h
06.01.2015 0,8 C 89 % 1022,4 hPa 0,0 l/m 2,0 km/h S-SO 2,25 h 0,6 UV-I 92 W/m 4,0 km/h
07.01.2015 1,6 C 94 % 1026,4 hPa 5,4 l/m 2,6 km/h W-NW 0,25 h 0,5 UV-I 44 W/m 8,1 km/h
08.01.2015 4,1 C 96 % 1021,2 hPa 25,6 l/m 5,1 km/h S 0,00 h 0,0 UV-I 25 W/m 19,3 km/h
09.01.2015 5,9 C 91 % 1013,3 hPa 9,8 l/m 10,4 km/h S-SW 0,00 h 0,0 UV-I 12 W/m 31,8 km/h
10.01.2015 7,4 C 85 % 1008,5 hPa 9,2 l/m 16,2 km/h W-SW 0,00 h 0,0 UV-I 24 W/m 39,8 km/h
11.01.2015 2,6 C 89 % 1015,1 hPa 3,2 l/m 11,1 km/h W-SW 0,08 h 0,0 UV-I 28 W/m 30,6 km/h
12.01.2015 6,6 C 87 % 1012,9 hPa 0,6 l/m 19,7 km/h S-SW 0,00 h 0,0 UV-I 26 W/m 38,2 km/h
13.01.2015 8,0 C 83 % 1005,2 hPa 8,0 l/m 12,4 km/h S-SW 0,92 h 0,6 UV-I 77 W/m 24,2 km/h
14.01.2015 2,5 C 87 % 1010,2 hPa 2,8 l/m 12,1 km/h S-SW 1,00 h 0,5 UV-I 58 W/m 26,1 km/h
15.01.2015 7,0 C 84 % 1000,4 hPa 5,0 l/m 24,4 km/h S 0,00 h 0,0 UV-I 49 W/m 35,4 km/h
16.01.2015 4,4 C 87 % 1005,8 hPa 0,4 l/m 2,9 km/h S 0,50 h 0,5 UV-I 83 W/m 4,4 km/h
17.01.2015 0,1 C 89 % 1014,4 hPa 0,2 l/m 0,8 km/h W 1,92 h 0,5 UV-I 83 W/m 5,2 km/h
18.01.2015 -0,6 C 87 % 1014,1 hPa 0,0 l/m 11,2 km/h S 2,58 h 0,5 UV-I 103 W/m 16,5 km/h
19.01.2015 -0,6 C 91 % 1011,4 hPa 0,0 l/m 0,0 km/h S 0,00 h 0,0 UV-I 56 W/m 0,0 km/h
20.01.2015 -0,7 C 94 % 1012,5 hPa 0,0 l/m 0,0 km/h W-NW 0,00 h 0,0 UV-I 40 W/m 1,2 km/h
21.01.2015 -2,1 C 86 % 1014,2 hPa 0,0 l/m 1,4 km/h SO 4,42 h 0,6 UV-I 142 W/m 2,8 km/h
22.01.2015 -0,8 C 89 % 1018,6 hPa 0,0 l/m 6,5 km/h N-NO 0,00 h 0,5 UV-I 45 W/m 16,5 km/h
23.01.2015 -2,2 C 87 % 1025,3 hPa 0,0 l/m 2,5 km/h S 0,00 h 0,0 UV-I 39 W/m 4,8 km/h
24.01.2015 -1,2 C 96 % 1020,9 hPa 3,6 l/m 1,8 km/h S 0,00 h 0,0 UV-I 32 W/m 3,2 km/h
25.01.2015 0,6 C 98 % 1027,2 hPa 1,2 l/m 0,6 km/h W 0,00 h 0,0 UV-I 21 W/m 2,4 km/h
26.01.2015 2,3 C 97 % 1017,7 hPa 13,0 l/m 6,2 km/h S 0,00 h 0,5 UV-I 43 W/m 17,3 km/h
27.01.2015 2,2 C 97 % 1019,5 hPa 3,4 l/m 2,7 km/h NW 0,25 h 0,5 UV-I 46 W/m 10,1 km/h
28.01.2015 2,0 C 91 % 1001,5 hPa 4,0 l/m 13,8 km/h S 1,08 h 0,7 UV-I 84 W/m 26,5 km/h
29.01.2015 1,2 C 88 % 981,3 hPa 1,6 l/m 8,4 km/h S-SW 1,25 h 0,6 UV-I 87 W/m 16,1 km/h
30.01.2015 -0,5 C 95 % 975,5 hPa 6,0 l/m 6,4 km/h W 0,00 h 0,0 UV-I 11 W/m 13,7 km/h
31.01.2015 0,0 C 96 % 982,8 hPa 5,4 l/m 1,3 km/h W 0,00 h 0,5 UV-I 38 W/m 5,2 km/h
Min-Datum 21.01.15 13.01.15 30.01.15 22 Tage 01.01.15 - - - - 01.01.15
Min-Zeit 06:00 13:00 03:45 - 02:15 - - - - 02:15
Minimum -6,2 C 65 % 970,9 hPa - 0,0 km/h - - - - 0,0 km/h
Max-Datum 10.01.15 07.01.15 01.01.15 08.01.15 13.01.15 - 01.01.15 28.01.15 13.01.15 10.01.15
Max-Zeit 02:00 18:25 07:00 18:45 13:00 - 15:20 12:10 12:45 15:55
Maximum 11,3 C 100 % 1035,7 hPa 25,6 l/m 37,4 km/h
S-SW
- 5,08 h 1,0 UV-I 399 W/m 75,6 km/h
W
Durchschnitt 2,0 C 90 % 1013,4 hPa #120,0 l/m 6,7 km/h S #22:30 h 0,5 UV-I 54 W/m 15,7 km/h

Durchschnitt Minimum Temp.-0,5 C
Durchschnitt Maximum Temp.4,0 C